[[{"header":{"parameterUnit":"m.s-1","parameterCategory":2,"la1":30.2991,"la2":30.254,"lo1":-89.0895,"lo2":-89.0444,"dy":0.0017,"dx":0.0017,"nx":28,"ny":28,"refTime":"2023-08-07T09:00:00:Z","depth":"0","parameterNumber":2,"parameterNumberName":"U-component_of_CURRENTS"},"data":[0,0,0,0,0,0,0,0,0,0,0,0,0,0,0,0,0,0,0,0,0,0,0,0,0,0,0,0,0,0,0,0,0,0,0,0,0,0,0,0,0,0,0,0,0,0,0,0,0,0,0,0,0,0,0,0,0,0,-0.0175,-0.0175,0,-0.0215,-0.0216,-0.0217,-0.0258,-0.0258,-0.0258,-0.0258,-0.0187,-0.0186,-0.0184,0,0,0,0,0,0,0,0,0,0,0,0,0,-0.0156,-0.0157,-0.0175,-0.0175,-0.0175,-0.0215,-0.0216,-0.0217,-0.0258,-0.0258,-0.0258,-0.0258,-0.0188,-0.0186,-0.0184,0,0,0,0,0,0,0,0,0,0,0,0,0,-0.0184,-0.0157,-0.0175,-0.0195,-0.0196,-0.0215,-0.0216,-0.0218,-0.0258,-0.0258,-0.0258,-0.0258,-0.0189,-0.0186,-0.0184,-0.0171,0,0,-0.0175,-0.0174,0,0,0,0,0,0,0,0,-0.0183,-0.0186,-0.0192,-0.0193,-0.0195,-0.0225,-0.0183,-0.0194,-0.0258,-0.0243,-0.0258,-0.0258,-0.0185,-0.0183,-0.0203,-0.0168,-0.0165,-0.0175,-0.0174,-0.0172,-0.0172,0,0,0,0,0,0,0,-0.0181,-0.0184,-0.0199,-0.0192,-0.0193,-0.0208,-0.0213,-0.0187,-0.0218,-0.0244,-0.0245,-0.0238,-0.0186,-0.0205,-0.0201,-0.0164,-0.0175,-0.0173,-0.0171,-0.017,-0.0217,-0.0219,0,0,0,0,0,0,-0.016,-0.0183,-0.0197,-0.0199,-0.018,-0.0208,-0.0213,-0.0222,-0.0221,-0.0219,-0.0238,-0.0239,-0.021,-0.0204,-0.0198,-0.026,-0.0173,-0.017,-0.0169,-0.0214,-0.0217,-0.022,0,0,0,0,0,0,-0.016,-0.0162,-0.0196,-0.0185,-0.0189,-0.0207,-0.0217,-0.0222,-0.0224,-0.0216,-0.0214,-0.0231,-0.021,-0.0202,-0.0225,-0.0254,-0.0169,-0.0166,-0.021,-0.0215,-0.0219,-0.0333,0,0,0,0,0,0,-0.0159,-0.0162,-0.0172,-0.0184,-0.0189,-0.0202,-0.0217,-0.0223,-0.0217,-0.0219,-0.0209,-0.0204,-0.0209,-0.023,-0.0222,-0.0249,-0.0164,-0.0207,-0.0212,-0.0217,-0.0326,-0.0341,-0.0354,0,0,0,0,0,-0.0159,-0.019,-0.0173,-0.0174,-0.0199,-0.0201,-0.0206,-0.0223,-0.0216,-0.0223,-0.0256,-0.0203,-0.0257,-0.023,-0.0221,-0.0247,-0.0204,-0.0211,-0.0217,-0.032,-0.0338,-0.0353,0,0,0,0,0,0,-0.0194,-0.0196,-0.0178,-0.0208,-0.0191,-0.0205,-0.0222,-0.0208,-0.0238,-0.0248,-0.0236,-0.0235,-0.0262,-0.0243,-0.0212,-0.0281,-0.0222,-0.0226,-0.0303,-0.032,-0.0333,-0.0298,-0.0162,0,0,0,0,0,-0.0198,-0.0228,-0.02,-0.0226,-0.0211,-0.0203,-0.0206,-0.0208,-0.0226,-0.0238,-0.0235,-0.0253,-0.0284,-0.0291,-0.03,-0.0327,-0.0322,-0.0342,-0.0355,-0.0367,-0.0337,-0.0433,-0.0453,-0.0241,-0.0241,-0.0241,0,0,-0.0217,-0.0224,-0.0238,-0.0234,-0.0228,-0.0225,-0.0208,-0.0213,-0.0233,-0.0222,-0.0264,-0.0281,-0.03,-0.036,-0.0368,-0.0345,-0.0425,-0.0375,-0.0385,-0.0347,-0.0442,-0.0462,-0.0481,-0.0245,-0.0244,-0.0244,0,0,-0.024,-0.0267,-0.0265,-0.0258,-0.0236,-0.0253,-0.0238,-0.0233,-0.0254,-0.0285,-0.0309,-0.0359,-0.0366,-0.0427,-0.045,-0.0535,-0.0487,-0.0523,-0.0571,-0.0668,-0.0686,-0.0701,-0.0719,-0.0735,-0.0542,-0.0543,-0.0543,0,-0.025,-0.0257,-0.0264,-0.0247,-0.0259,-0.0254,-0.0245,-0.0275,-0.0289,-0.0316,-0.0307,-0.0398,-0.0409,-0.0514,-0.056,-0.0563,-0.0578,-0.0509,-0.0686,-0.0701,-0.0715,-0.0729,-0.0745,-0.0549,-0.0548,-0.0547,-0.0547,0,-0.0256,-0.0253,-0.0259,-0.0254,-0.0268,-0.028,-0.0295,-0.0335,-0.0357,-0.0371,-0.0447,-0.0505,-0.0549,-0.0587,-0.0595,-0.0706,-0.0671,-0.0687,-0.0641,-0.0744,-0.0751,-0.0766,-0.0558,-0.0556,-0.0554,-0.0552,0,0,-0.0287,-0.0263,-0.0259,-0.0263,-0.0281,-0.0306,-0.0363,-0.041,-0.0448,-0.0493,-0.0541,-0.0645,-0.0641,-0.0667,-0.0702,-0.0797,-0.0919,-0.0778,-0.078,-0.0786,-0.1078,-0.0805,-0.0794,-0.0977,-0.098,-0.0983,-0.1042,0,-0.0276,-0.0248,-0.026,-0.0288,-0.0282,-0.0341,-0.0397,-0.0453,-0.0494,-0.0545,-0.0627,-0.0661,-0.0683,-0.0702,-0.081,-0.0868,-0.0962,-0.0896,-0.0981,-0.0981,-0.0722,-0.0804,-0.0677,-0.0697,-0.1056,-0.1059,-0.106,0,-0.0242,-0.0257,-0.023,-0.0307,-0.0314,-0.0356,-0.0476,-0.0516,-0.059,-0.0611,-0.0672,-0.0674,-0.0783,-0.0791,-0.0969,-0.0922,-0.0995,-0.1061,-0.1066,-0.0767,-0.0735,-0.0655,-0.071,-0.0845,-0.1082,-0.1081,-0.1079,0,-0.0229,-0.0247,-0.0244,-0.026,-0.0327,-0.0385,-0.0461,-0.0532,-0.0571,-0.0623,-0.0619,-0.0736,-0.0743,-0.0906,-0.0966,-0.0987,-0.1138,-0.1194,-0.1029,-0.101,-0.0885,-0.0845,-0.1063,-0.1347,-0.1347,-0.1347,-0.1347,0,-0.0195,-0.0214,-0.0246,-0.0255,-0.0342,-0.0383,-0.0435,-0.054,-0.0592,-0.0578,-0.0629,-0.0606,-0.077,-0.0833,-0.097,-0.0981,-0.1143,-0.1013,-0.1011,-0.0915,-0.0879,-0.0969,-0.1021,-0.1349,-0.1348,-0.1348,-0.1348,0,-0.0135,-0.0123,-0.0173,-0.027,-0.0307,-0.0375,-0.0449,-0.046,-0.0519,-0.0502,-0.0502,-0.0526,-0.0548,-0.0697,-0.0886,-0.0897,-0.0992,-0.0992,-0.0796,-0.0765,-0.0656,-0.0714,-0.0791,-0.0762,-0.0812,-0.0805,-0.08,0,-0.0093,-0.0082,-0.0187,-0.022,-0.0266,-0.0326,-0.0329,-0.0424,-0.0396,-0.0407,-0.0381,-0.0378,-0.0305,-0.0427,-0.0474,-0.0611,-0.08,-0.0538,-0.0547,-0.0599,-0.0673,-0.0753,-0.0733,-0.0465,-0.0457,-0.0451,-0.0446,0,-0.0061,-0.0078,-0.0114,-0.0156,-0.0187,-0.0229,-0.025,-0.0255,-0.0264,-0.0227,-0.0164,-0.0124,-0.0076,-0.0024,-0.0089,-0.0205,-0.0499,-0.0398,-0.0589,-0.0483,-0.0461,-0.0446,-0.0439,-0.039,-0.0396,-0.04,-0.0403,-0.0405,-0.0044,-0.0063,-0.0047,-0.0098,-0.012,-0.014,-0.0121,-0.0087,-0.0047,0.0012,0.004,0.0158,0.0271,0.026,0.0101,0.0007,-0.0059,-0.0052,-0.014,-0.0236,-0.0129,0.011,0.0265,0.0263,0.0262,0.026,0.0259,0,-0.0048,0.0009,0.0005,-0.0014,0.0019,-0.0041,-0.0029,0.0045,0.0167,0.0213,0.0311,0.0461,0.0514,0.0401,0.0359,0.023,0.0081,0.0111,-0.0116,-0.0124,-0.0058,0.0039,0.0318,0.0318,0.0318,0.0318,0.0318,0.0318,-0.0011,0.0049,0.0078,0.017,0.0155,0.0195,0.0201,0.0268,0.0329,0.0469,0.0574,0.0653,0.0617,0.039,0.0126,0.0062,-0.0155,-0.0037,-0.0182,-0.0297,-0.0327,-0.0355,-0.0288,-0.0081,-0.0082,-0.0234,-0.0236,-0.0237]},{"header":{"parameterUnit":"m.s-1","parameterCategory":2,"la1":30.2991,"la2":30.254,"lo1":-89.0895,"lo2":-89.0444,"dy":0.0017,"dx":0.0017,"nx":28,"ny":28,"refTime":"2023-08-07T09:00:00:Z","depth":"0","parameterNumber":3,"parameterNumberName":"V-component_of_CURRENTS"},"data":[0,0,0,0,0,0,0,0,0,0,0,0,0,0,0,0,0,0,0,0,0,0,0,0,0,0,0,0,0,0,0,0,0,0,0,0,0,0,0,0,0,0,0,0,0,0,0,0,0,0,0,0,0,0,0,0,0,0,0.1289,0.129,0,0.131,0.131,0.131,0.1317,0.1317,0.1317,0.1316,0.1448,0.1452,0.1455,0,0,0,0,0,0,0,0,0,0,0,0,0,0.1281,0.1281,0.1289,0.129,0.129,0.131,0.131,0.131,0.1317,0.1317,0.1316,0.1316,0.1447,0.1451,0.1456,0,0,0,0,0,0,0,0,0,0,0,0,0,0.1293,0.1281,0.1289,0.1294,0.1295,0.1309,0.131,0.1311,0.1317,0.1317,0.1316,0.1316,0.1445,0.1451,0.1456,0.1498,0,0,0.1474,0.1476,0,0,0,0,0,0,0,0,0.1292,0.1293,0.1293,0.1294,0.1294,0.1309,0.1355,0.1378,0.1317,0.131,0.1316,0.1316,0.1411,0.1419,0.1425,0.1504,0.151,0.1474,0.1477,0.148,0.1481,0,0,0,0,0,0,0,0.1291,0.1292,0.1299,0.1293,0.1294,0.1303,0.1305,0.1359,0.1366,0.1311,0.1311,0.1311,0.1412,0.1419,0.1428,0.1512,0.1474,0.1479,0.1482,0.1485,0.1628,0.1628,0,0,0,0,0,0,0.1284,0.1292,0.1298,0.13,0.129,0.1303,0.1305,0.1306,0.1363,0.137,0.1311,0.1311,0.141,0.1422,0.1433,0.1429,0.148,0.1485,0.1488,0.1627,0.1628,0.1628,0,0,0,0,0,0,0.1284,0.1285,0.1298,0.1295,0.1297,0.1304,0.1305,0.1307,0.1301,0.1361,0.1371,0.1302,0.141,0.1425,0.1447,0.1437,0.1488,0.1493,0.1627,0.1627,0.1628,0.1459,0,0,0,0,0,0,0.1284,0.1285,0.1259,0.1294,0.1296,0.1283,0.1305,0.1307,0.1302,0.1301,0.1358,0.137,0.1411,0.1437,0.1452,0.1445,0.1497,0.1626,0.1627,0.1628,0.1464,0.1454,0.1445,0,0,0,0,0,0.1283,0.1234,0.1258,0.1257,0.1269,0.1282,0.1283,0.1289,0.1301,0.1286,0.1316,0.1367,0.1455,0.1441,0.1458,0.1453,0.1626,0.1627,0.1628,0.1468,0.1456,0.1445,0,0,0,0,0,0,0.1193,0.1232,0.1258,0.1218,0.1246,0.1282,0.1252,0.1281,0.1293,0.1303,0.1355,0.1368,0.1387,0.1453,0.1436,0.1504,0.1558,0.1563,0.1431,0.142,0.1411,0.1382,0.1502,0,0,0,0,0,0.1172,0.1146,0.1206,0.1163,0.1184,0.1226,0.1224,0.1256,0.1281,0.1286,0.1328,0.1383,0.141,0.1435,0.1482,0.1513,0.1525,0.1533,0.1523,0.1515,0.1507,0.1477,0.1462,0.1632,0.1632,0.1632,0,0,0.113,0.1134,0.1125,0.1142,0.1165,0.1178,0.1222,0.1234,0.1236,0.1304,0.1304,0.1347,0.1409,0.1427,0.1447,0.1477,0.1473,0.1516,0.1507,0.1505,0.1476,0.1459,0.1443,0.1632,0.1632,0.1632,0,0,0.1058,0.1043,0.1037,0.1054,0.1096,0.1118,0.1122,0.1186,0.1201,0.1225,0.1262,0.1284,0.1357,0.1376,0.1398,0.1376,0.1416,0.1417,0.1347,0.1316,0.13,0.1286,0.126,0.1246,0.1419,0.1419,0.1419,0,0.1003,0.1009,0.103,0.1035,0.1022,0.1089,0.1092,0.1115,0.1173,0.118,0.1212,0.1268,0.1326,0.1309,0.1303,0.1349,0.1338,0.1369,0.1295,0.1282,0.1271,0.1248,0.1234,0.1411,0.1412,0.1412,0.1413,0,0.0966,0.0965,0.0949,0.0972,0.0954,0.0961,0.1008,0.1005,0.1037,0.1089,0.1099,0.1155,0.1187,0.1214,0.1249,0.1209,0.1228,0.1269,0.1302,0.1242,0.1224,0.1212,0.1399,0.1402,0.1404,0.1406,0,0,0.0854,0.0922,0.0916,0.0913,0.0928,0.0905,0.0882,0.0894,0.0877,0.0947,0.092,0.0975,0.103,0.1059,0.1108,0.1093,0.1005,0.1142,0.1144,0.1078,0.0922,0.1011,0.1007,0.1013,0.101,0.1008,0.0933,0,0.0826,0.0825,0.086,0.0815,0.0804,0.0815,0.0775,0.0782,0.0808,0.0806,0.087,0.0909,0.0966,0.0992,0.0964,0.0993,0.0969,0.1021,0.1027,0.1028,0.1081,0.0995,0.1064,0.1009,0.0922,0.092,0.0918,0,0.08,0.0772,0.076,0.0726,0.0724,0.0696,0.0598,0.0588,0.0606,0.0643,0.0667,0.0768,0.0762,0.0842,0.0801,0.0824,0.0862,0.0888,0.0886,0.1022,0.1095,0.1067,0.0992,0.108,0.0901,0.0902,0.0903,0,0.0712,0.0702,0.0669,0.0657,0.0632,0.0588,0.0551,0.0534,0.0523,0.0556,0.058,0.0603,0.0638,0.0635,0.0729,0.0753,0.0689,0.0735,0.0844,0.0851,0.0942,0.0962,0.0926,0.0714,0.0714,0.0714,0.0714,0,0.069,0.0647,0.0619,0.0608,0.0488,0.0487,0.0421,0.0393,0.0392,0.0405,0.0499,0.0544,0.0595,0.0616,0.0655,0.0697,0.0627,0.0807,0.0828,0.089,0.0905,0.102,0.1054,0.0711,0.0712,0.0713,0.0713,0,0.0651,0.0671,0.0577,0.0509,0.0479,0.0364,0.034,0.0317,0.0316,0.0314,0.0348,0.0463,0.0495,0.0531,0.0561,0.0638,0.0735,0.0718,0.0795,0.0829,0.1032,0.1054,0.1044,0.1137,0.0792,0.0794,0.0795,0,0.0629,0.0614,0.0483,0.0425,0.0407,0.0296,0.027,0.0256,0.0245,0.0305,0.0304,0.0395,0.0479,0.0516,0.0637,0.067,0.0767,0.0841,0.0922,0.103,0.1069,0.108,0.1161,0.0959,0.0962,0.0964,0.0966,0,0.0553,0.0531,0.0465,0.0353,0.029,0.023,0.0189,0.0151,0.0168,0.0222,0.0307,0.0396,0.0489,0.0629,0.0723,0.0785,0.0933,0.0891,0.0965,0.1161,0.1205,0.1312,0.1023,0.0985,0.0983,0.0982,0.0981,0.098,0.047,0.0391,0.0357,0.0247,0.02,0.017,0.0132,0.0153,0.0159,0.0228,0.031,0.0443,0.066,0.0809,0.086,0.1103,0.1066,0.1229,0.1231,0.122,0.1362,0.1129,0.1155,0.1154,0.1153,0.1153,0.1152,0,0.0352,0.0358,0.0279,0.0181,0.0166,0.0161,0.0107,0.0111,0.0161,0.0256,0.0374,0.0619,0.0856,0.1018,0.1348,0.1461,0.1485,0.1514,0.153,0.1589,0.1344,0.1411,0.154,0.154,0.154,0.154,0.154,0.154,0.0322,0.0258,0.0241,0.0179,0.0159,0.0136,0.0111,0.0145,0.018,0.037,0.0529,0.0657,0.1006,0.1375,0.1684,0.1728,0.1822,0.1786,0.1838,0.1658,0.1632,0.1606,0.1677,0.186,0.1861,0.2121,0.2124,0.2125]}],[{"header":{"parameterUnit":"m.s-1","parameterCategory":2,"la1":30.2991,"la2":30.254,"lo1":-89.0895,"lo2":-89.0444,"dy":0.0017,"dx":0.0017,"nx":28,"ny":28,"refTime":"2023-08-07T09:00:00:Z","depth":"2","parameterNumber":2,"parameterNumberName":"U-component_of_CURRENTS"},"data":[0,0,0,0,0,0,0,0,0,0,0,0,0,0,0,0,0,0,0,0,0,0,0,0,0,0,0,0,0,0,0,0,0,0,0,0,0,0,0,0,0,0,0,0,0,0,0,0,0,0,0,0,0,0,0,0,0,0,-0.2955,-0.2955,0,-0.2886,-0.2884,-0.2883,-0.255,-0.2542,-0.2535,-0.2529,-0.2401,-0.2404,-0.2407,0,0,0,0,0,0,0,0,0,0,0,0,0,-0.2664,-0.2672,-0.2955,-0.2955,-0.2955,-0.2886,-0.2884,-0.2882,-0.2551,-0.2542,-0.2534,-0.2525,-0.24,-0.2403,-0.2407,0,0,0,0,0,0,0,0,0,0,0,0,0,-0.2705,-0.2674,-0.2955,-0.2787,-0.2772,-0.2886,-0.2884,-0.2882,-0.2553,-0.2542,-0.2531,-0.2521,-0.2398,-0.2403,-0.2408,-0.2651,0,0,-0.2423,-0.2425,0,0,0,0,0,0,0,0,-0.2703,-0.2715,-0.2812,-0.2799,-0.2782,-0.2722,-0.2735,-0.2804,-0.2555,-0.2627,-0.2529,-0.2516,-0.2517,-0.2511,-0.251,-0.2645,-0.2639,-0.2423,-0.2426,-0.2428,-0.2429,0,0,0,0,0,0,0,-0.2701,-0.2716,-0.2919,-0.2813,-0.2795,-0.2669,-0.2663,-0.2745,-0.2625,-0.262,-0.2598,-0.2607,-0.2505,-0.2507,-0.2505,-0.2637,-0.2423,-0.2427,-0.243,-0.2432,-0.2604,-0.2606,0,0,0,0,0,0,-0.2748,-0.2716,-0.2921,-0.2918,-0.2725,-0.2684,-0.2677,-0.2746,-0.2625,-0.2599,-0.2616,-0.2592,-0.2504,-0.25,-0.2499,-0.2483,-0.2428,-0.2432,-0.2435,-0.2603,-0.2605,-0.2607,0,0,0,0,0,0,-0.2743,-0.277,-0.2924,-0.2815,-0.2827,-0.2703,-0.2781,-0.275,-0.266,-0.2624,-0.2592,-0.2545,-0.2495,-0.2492,-0.2498,-0.2486,-0.2435,-0.2439,-0.2601,-0.2603,-0.2606,-0.2642,0,0,0,0,0,0,-0.2736,-0.277,-0.2805,-0.2823,-0.2836,-0.2956,-0.2791,-0.2757,-0.2692,-0.2656,-0.2559,-0.2538,-0.2487,-0.2492,-0.2503,-0.2491,-0.2443,-0.2599,-0.2602,-0.2605,-0.2639,-0.2646,-0.2652,0,0,0,0,0,-0.2727,-0.2814,-0.2809,-0.2831,-0.2901,-0.296,-0.2954,-0.2819,-0.2698,-0.269,-0.2602,-0.2536,-0.2516,-0.25,-0.2512,-0.2501,-0.2597,-0.2601,-0.2605,-0.2636,-0.2644,-0.2651,0,0,0,0,0,0,-0.2667,-0.2792,-0.2783,-0.2893,-0.2915,-0.2904,-0.2885,-0.282,-0.2751,-0.2681,-0.2605,-0.2587,-0.2575,-0.257,-0.2553,-0.2559,-0.2533,-0.2539,-0.2552,-0.256,-0.2566,-0.2563,-0.2447,0,0,0,0,0,-0.2704,-0.2799,-0.2878,-0.2946,-0.2974,-0.2933,-0.2924,-0.2854,-0.2818,-0.2766,-0.2705,-0.2646,-0.2635,-0.2611,-0.2614,-0.2672,-0.2603,-0.266,-0.2666,-0.2671,-0.2678,-0.2591,-0.2589,-0.2619,-0.2619,-0.2619,0,0,-0.2676,-0.2771,-0.2805,-0.2939,-0.2936,-0.2991,-0.2893,-0.2889,-0.288,-0.2787,-0.2729,-0.2689,-0.266,-0.2667,-0.2661,-0.2637,-0.2621,-0.2676,-0.268,-0.2685,-0.2595,-0.2591,-0.2588,-0.2622,-0.2621,-0.2621,0,0,-0.2715,-0.2786,-0.2886,-0.2933,-0.2985,-0.2987,-0.2987,-0.2982,-0.2911,-0.2937,-0.2816,-0.2765,-0.2789,-0.272,-0.2704,-0.2776,-0.2667,-0.2766,-0.2786,-0.2702,-0.2697,-0.2693,-0.2562,-0.2546,-0.2756,-0.2756,-0.2756,0,-0.2656,-0.2826,-0.2903,-0.3007,-0.3014,-0.299,-0.3037,-0.3032,-0.3002,-0.2961,-0.291,-0.2847,-0.2811,-0.2776,-0.2768,-0.2784,-0.2705,-0.2752,-0.2705,-0.2699,-0.2694,-0.2562,-0.2543,-0.2758,-0.2758,-0.2757,-0.2757,0,-0.28,-0.2883,-0.2933,-0.3068,-0.3099,-0.3127,-0.3159,-0.314,-0.307,-0.304,-0.2986,-0.2945,-0.2876,-0.2864,-0.2844,-0.2784,-0.2727,-0.2727,-0.2674,-0.2692,-0.2552,-0.2532,-0.2761,-0.276,-0.276,-0.2759,0,0,-0.2713,-0.2986,-0.2969,-0.3016,-0.3112,-0.3135,-0.3167,-0.3175,-0.312,-0.3108,-0.3035,-0.3019,-0.2942,-0.292,-0.2861,-0.2798,-0.2677,-0.2748,-0.2742,-0.2598,-0.2442,-0.2324,-0.229,-0.2658,-0.2656,-0.2654,-0.2344,0,-0.2744,-0.2961,-0.3066,-0.312,-0.3198,-0.3195,-0.3214,-0.3201,-0.3166,-0.3107,-0.3051,-0.2989,-0.2982,-0.2915,-0.286,-0.2724,-0.2633,-0.2759,-0.2466,-0.2456,-0.2333,-0.2267,-0.2207,-0.1921,-0.2323,-0.232,-0.2317,0,-0.2803,-0.2935,-0.3068,-0.3143,-0.3161,-0.3167,-0.3118,-0.3147,-0.3107,-0.3076,-0.3023,-0.2974,-0.2881,-0.2877,-0.2659,-0.2733,-0.2595,-0.25,-0.2485,-0.2354,-0.2302,-0.1979,-0.1868,-0.2282,-0.2285,-0.2288,-0.229,0,-0.27,-0.2874,-0.297,-0.3005,-0.3131,-0.3096,-0.3104,-0.3087,-0.3065,-0.3032,-0.298,-0.2905,-0.28,-0.2685,-0.2498,-0.2561,-0.2232,-0.2285,-0.2046,-0.2034,-0.1916,-0.1898,-0.2124,-0.2124,-0.2125,-0.2126,-0.2127,0,-0.2706,-0.2718,-0.2909,-0.2943,-0.2908,-0.3019,-0.295,-0.2953,-0.2947,-0.288,-0.2926,-0.2824,-0.2748,-0.2565,-0.2446,-0.2144,-0.2169,-0.2018,-0.1944,-0.1925,-0.1912,-0.2198,-0.2211,-0.2114,-0.2116,-0.2119,-0.2121,0,-0.2563,-0.2737,-0.2777,-0.288,-0.2878,-0.2825,-0.2833,-0.2806,-0.2833,-0.2745,-0.2731,-0.2691,-0.2474,-0.2351,-0.2099,-0.2009,-0.1786,-0.1671,-0.1631,-0.156,-0.1661,-0.168,-0.139,-0.1383,-0.1377,-0.1372,-0.1368,0,-0.2546,-0.2588,-0.2653,-0.2623,-0.2636,-0.2615,-0.2602,-0.2694,-0.2668,-0.2627,-0.2549,-0.2386,-0.2245,-0.1864,-0.1696,-0.1437,-0.152,-0.1199,-0.1343,-0.1627,-0.1584,-0.1613,-0.1638,-0.1175,-0.1169,-0.1165,-0.1161,0,-0.2418,-0.2415,-0.245,-0.2422,-0.2389,-0.238,-0.2361,-0.2338,-0.2429,-0.2397,-0.2283,-0.2194,-0.1893,-0.1649,-0.1342,-0.1168,-0.1264,-0.1101,-0.1352,-0.1395,-0.1406,-0.1371,-0.1407,-0.1123,-0.1127,-0.113,-0.1132,-0.1133,-0.2218,-0.2191,-0.2247,-0.2178,-0.2156,-0.2115,-0.2073,-0.2103,-0.2091,-0.2013,-0.1998,-0.1794,-0.1686,-0.1199,-0.1012,-0.0825,-0.0952,-0.0886,-0.0907,-0.0931,-0.0986,-0.099,-0.0635,-0.0636,-0.0637,-0.0638,-0.0638,0,-0.2012,-0.2038,-0.2002,-0.1988,-0.1937,-0.1943,-0.1904,-0.1897,-0.1858,-0.1736,-0.1656,-0.1282,-0.1107,-0.0938,-0.0695,-0.061,-0.0639,-0.0473,-0.0622,-0.0659,-0.0693,-0.0746,-0.0324,-0.0323,-0.0321,-0.032,0,0,-0.1907,-0.1913,-0.1952,-0.1829,-0.1758,-0.1672,-0.1613,-0.1609,-0.1516,-0.1296,-0.1102,-0.1072,-0.0978,-0.0701,-0.0624,-0.0493,-0.0545,-0.0372,-0.0636,-0.0857,-0.089,-0.0942,-0.1064,0,0,0,0,0]},{"header":{"parameterUnit":"m.s-1","parameterCategory":2,"la1":30.2991,"la2":30.254,"lo1":-89.0895,"lo2":-89.0444,"dy":0.0017,"dx":0.0017,"nx":28,"ny":28,"refTime":"2023-08-07T09:00:00:Z","depth":"2","parameterNumber":3,"parameterNumberName":"V-component_of_CURRENTS"},"data":[0,0,0,0,0,0,0,0,0,0,0,0,0,0,0,0,0,0,0,0,0,0,0,0,0,0,0,0,0,0,0,0,0,0,0,0,0,0,0,0,0,0,0,0,0,0,0,0,0,0,0,0,0,0,0,0,0,0,-0.0592,-0.0592,0,-0.0545,-0.0545,-0.0544,-0.0551,-0.0552,-0.0553,-0.0554,-0.0467,-0.0464,-0.0461,0,0,0,0,0,0,0,0,0,0,0,0,0,-0.0648,-0.0647,-0.0592,-0.0592,-0.0592,-0.0546,-0.0545,-0.0544,-0.0551,-0.0552,-0.0554,-0.0555,-0.0468,-0.0465,-0.0461,0,0,0,0,0,0,0,0,0,0,0,0,0,-0.0613,-0.0647,-0.0593,-0.0591,-0.059,-0.0546,-0.0545,-0.0544,-0.0551,-0.0552,-0.0554,-0.0555,-0.047,-0.0465,-0.046,-0.0402,0,0,-0.0446,-0.0443,0,0,0,0,0,0,0,0,-0.0615,-0.0611,-0.0591,-0.0591,-0.059,-0.0557,-0.0532,-0.0495,-0.0551,-0.0564,-0.0554,-0.0556,-0.0493,-0.0487,-0.0473,-0.0398,-0.0395,-0.0445,-0.0442,-0.044,-0.0439,0,0,0,0,0,0,0,-0.0618,-0.0613,-0.0572,-0.0591,-0.059,-0.0578,-0.0575,-0.0525,-0.052,-0.0563,-0.0564,-0.0561,-0.0493,-0.0478,-0.0471,-0.0393,-0.0445,-0.0441,-0.0438,-0.0436,-0.0231,-0.0229,0,0,0,0,0,0,-0.0627,-0.0615,-0.0574,-0.0571,-0.0608,-0.0577,-0.0573,-0.0565,-0.0521,-0.0517,-0.056,-0.0561,-0.0485,-0.0477,-0.0468,-0.0372,-0.044,-0.0436,-0.0433,-0.0234,-0.023,-0.0228,0,0,0,0,0,0,-0.0628,-0.0623,-0.0576,-0.0594,-0.0587,-0.0575,-0.0565,-0.0563,-0.0559,-0.0519,-0.0514,-0.0559,-0.0486,-0.0475,-0.0422,-0.037,-0.0434,-0.0429,-0.0237,-0.0233,-0.0229,-0.0196,0,0,0,0,0,0,-0.063,-0.0624,-0.0621,-0.0594,-0.0587,-0.053,-0.0564,-0.0562,-0.0555,-0.0557,-0.0516,-0.0509,-0.0486,-0.043,-0.0418,-0.0365,-0.0425,-0.024,-0.0235,-0.023,-0.0201,-0.0192,-0.0184,0,0,0,0,0,-0.0632,-0.0616,-0.062,-0.0616,-0.0582,-0.0528,-0.0521,-0.0518,-0.0554,-0.0525,-0.0515,-0.0511,-0.039,-0.0424,-0.0411,-0.0355,-0.0242,-0.0236,-0.0231,-0.0204,-0.0194,-0.0184,0,0,0,0,0,0,-0.0621,-0.0615,-0.0619,-0.0598,-0.056,-0.053,-0.0518,-0.052,-0.0491,-0.0505,-0.0486,-0.0475,-0.0406,-0.0384,-0.0422,-0.0279,-0.0311,-0.0302,-0.0295,-0.0285,-0.0277,-0.0266,-0.0421,0,0,0,0,0,-0.0621,-0.0623,-0.0589,-0.0572,-0.056,-0.0544,-0.0528,-0.0517,-0.0492,-0.0483,-0.0459,-0.0423,-0.0366,-0.0334,-0.0284,-0.021,-0.0189,-0.0161,-0.0152,-0.0146,-0.0125,-0.0055,-0.0039,-0.0209,-0.0209,-0.0209,0,0,-0.0617,-0.0611,-0.0613,-0.0572,-0.0558,-0.0506,-0.0537,-0.0505,-0.0454,-0.0474,-0.0415,-0.0397,-0.0343,-0.026,-0.0224,-0.0237,-0.0088,-0.0138,-0.0133,-0.0116,-0.0047,-0.0031,-0.0017,-0.0205,-0.0205,-0.0206,0,0,-0.0599,-0.06,-0.0592,-0.0552,-0.0518,-0.049,-0.0482,-0.0447,-0.0424,-0.0366,-0.0362,-0.0309,-0.0245,-0.0175,-0.0137,-0.0047,-0.0053,-0.0043,0.0015,0.0083,0.0097,0.0109,0.0141,0.0156,-0.0033,-0.0033,-0.0033,0,-0.0584,-0.058,-0.0572,-0.0531,-0.0505,-0.0483,-0.0441,-0.0386,-0.0334,-0.0312,-0.034,-0.0231,-0.0187,-0.0066,-0.0037,-0.0023,-0.0019,-0.0034,0.0091,0.0105,0.0117,0.0146,0.0163,-0.003,-0.0031,-0.0031,-0.0031,0,-0.0565,-0.0539,-0.0525,-0.0476,-0.0427,-0.0392,-0.0317,-0.0272,-0.0268,-0.0227,-0.0143,-0.0088,-0.0031,0.0006,0.0011,0.0132,0.0094,0.0083,0.0058,0.0136,0.0162,0.0178,-0.0027,-0.0028,-0.0029,-0.0029,0,0,-0.0595,-0.053,-0.0526,-0.0511,-0.0408,-0.0381,-0.0268,-0.0185,-0.0152,-0.0077,-0.0028,0.0095,0.0084,0.0129,0.0152,0.0227,0.0318,0.0184,0.0187,0.0201,0.0425,0.044,0.0458,0.0303,0.0306,0.0309,0.0401,0,-0.059,-0.0558,-0.049,-0.0427,-0.0417,-0.0322,-0.023,-0.0139,-0.0083,-0.0018,0.0074,0.0124,0.0148,0.0143,0.0238,0.0285,0.0364,0.0292,0.0362,0.0365,0.0357,0.0481,0.0355,0.0429,0.0416,0.0419,0.0421,0,-0.061,-0.0597,-0.0559,-0.0471,-0.0452,-0.0388,-0.0297,-0.02,-0.0057,-0.0018,0.0078,0.0124,0.0264,0.0243,0.0421,0.0354,0.0403,0.0449,0.0452,0.0472,0.0413,0.0357,0.0459,0.0448,0.0446,0.0444,0.0442,0,-0.0734,-0.0644,-0.0641,-0.0607,-0.0482,-0.0447,-0.0383,-0.0241,-0.018,-0.0041,-0.0004,0.016,0.0214,0.0331,0.0441,0.0414,0.0608,0.0582,0.0657,0.0655,0.0573,0.056,0.0723,0.0723,0.0723,0.0723,0.0722,0,-0.0786,-0.0779,-0.0722,-0.0717,-0.0699,-0.058,-0.0527,-0.0424,-0.0299,-0.0206,-0.0046,0.0069,0.0232,0.0365,0.0456,0.0617,0.0628,0.0707,0.0707,0.058,0.0567,0.06,0.0584,0.0726,0.0725,0.0725,0.0724,0,-0.0906,-0.086,-0.085,-0.0775,-0.0756,-0.0757,-0.0641,-0.0589,-0.0461,-0.0336,-0.0298,-0.0024,0.019,0.0347,0.0545,0.063,0.0772,0.0817,0.0645,0.0627,0.0764,0.075,0.093,0.0932,0.0934,0.0935,0.0936,0,-0.0967,-0.0987,-0.0935,-0.0932,-0.09,-0.0882,-0.0833,-0.07,-0.0615,-0.0357,-0.028,-0.0051,0.0184,0.049,0.0675,0.0854,0.0833,0.0802,0.0777,0.0818,0.0799,0.0781,0.0765,0.0659,0.0658,0.0657,0.0656,0,-0.1076,-0.1057,-0.1047,-0.1066,-0.1043,-0.0982,-0.091,-0.0871,-0.066,-0.0504,-0.0222,-0.0033,0.0307,0.0535,0.074,0.081,0.0768,0.0792,0.0899,0.0635,0.0573,0.055,0.0541,0.0647,0.0648,0.0648,0.0649,0.0649,-0.1151,-0.1189,-0.1183,-0.1187,-0.1147,-0.1067,-0.1021,-0.087,-0.0706,-0.0467,-0.0287,0.0004,0.0191,0.0535,0.0677,0.0802,0.0853,0.0778,0.0776,0.0777,0.0739,0.0685,0.0769,0.0771,0.0772,0.0773,0.0774,0,-0.1241,-0.1268,-0.1298,-0.1283,-0.1248,-0.1184,-0.1037,-0.0926,-0.0696,-0.0498,-0.0291,-0.0095,0.0144,0.038,0.0623,0.0755,0.0704,0.0683,0.0575,0.0582,0.0589,0.0538,0.0517,0.0518,0.0518,0.0518,0,0,-0.129,-0.1363,-0.1385,-0.1376,-0.1341,-0.1251,-0.1151,-0.0914,-0.0721,-0.0468,-0.0295,-0.0226,0.0144,0.0196,0.033,0.0468,0.0472,0.043,0.0608,0.0463,0.0468,0.0604,0.053,0,0,0,0,0]}],[{"header":{"parameterUnit":"m.s-1","parameterCategory":2,"la1":30.2991,"la2":30.254,"lo1":-89.0895,"lo2":-89.0444,"dy":0.0017,"dx":0.0017,"nx":28,"ny":28,"refTime":"2023-08-07T09:00:00:Z","depth":"4","parameterNumber":2,"parameterNumberName":"U-component_of_CURRENTS"},"data":[0,0,0,0,0,0,0,0,0,0,0,0,0,0,0,0,0,0,0,0,0,0,0,0,0,0,0,0,0,0,0,0,0,0,0,0,0,0,0,0,0,0,0,0,0,0,0,0,0,0,0,0,0,0,0,0,0,0,-0.102,-0.1021,0,-0.1094,-0.1095,-0.1095,-0.1165,-0.1166,-0.1167,-0.1169,-0.1228,-0.1229,-0.1229,0,0,0,0,0,0,0,0,0,0,0,0,0,-0.0905,-0.0907,-0.102,-0.1022,-0.1023,-0.1094,-0.1095,-0.1095,-0.1165,-0.1166,-0.1168,-0.1169,-0.1228,-0.1229,-0.1229,0,0,0,0,0,0,0,0,0,0,0,0,0,-0.0961,-0.0907,-0.102,-0.1069,-0.1074,-0.1094,-0.1095,-0.1096,-0.1164,-0.1166,-0.1168,-0.117,-0.1228,-0.1229,-0.1229,-0.1197,0,0,-0.1231,-0.1232,0,0,0,0,0,0,0,0,-0.0958,-0.0965,-0.106,-0.1065,-0.1071,-0.1125,-0.1076,-0.113,-0.1164,-0.1126,-0.1169,-0.1171,-0.1193,-0.1197,-0.1202,-0.12,-0.1203,-0.1231,-0.1232,-0.1232,-0.1232,0,0,0,0,0,0,0,-0.0954,-0.0962,-0.1046,-0.1061,-0.1068,-0.1075,-0.1085,-0.1086,-0.1146,-0.113,-0.1136,-0.1149,-0.1196,-0.1201,-0.1204,-0.1204,-0.1231,-0.1232,-0.1232,-0.1233,-0.1339,-0.1342,0,0,0,0,0,0,-0.0952,-0.0958,-0.1044,-0.1049,-0.1022,-0.1076,-0.1087,-0.1103,-0.1146,-0.1156,-0.1148,-0.1152,-0.1199,-0.1203,-0.1206,-0.1321,-0.1232,-0.1233,-0.1233,-0.1337,-0.134,-0.1343,0,0,0,0,0,0,-0.0949,-0.0959,-0.1041,-0.1008,-0.1019,-0.1077,-0.1094,-0.1104,-0.1152,-0.1161,-0.117,-0.1191,-0.1201,-0.1205,-0.1253,-0.1318,-0.1233,-0.1234,-0.1334,-0.1338,-0.1341,-0.1454,0,0,0,0,0,0,-0.0946,-0.0957,-0.0981,-0.1008,-0.1021,-0.1065,-0.1093,-0.1104,-0.1156,-0.1164,-0.12,-0.1205,-0.1202,-0.1252,-0.1254,-0.1318,-0.1234,-0.1331,-0.1336,-0.134,-0.1447,-0.1461,-0.1473,0,0,0,0,0,-0.0941,-0.0961,-0.0982,-0.0993,-0.1048,-0.1065,-0.1072,-0.1116,-0.1157,-0.1169,-0.1216,-0.1206,-0.1283,-0.1254,-0.1256,-0.1321,-0.1329,-0.1335,-0.134,-0.1442,-0.1458,-0.1473,0,0,0,0,0,0,-0.0927,-0.0972,-0.0994,-0.103,-0.1053,-0.1079,-0.1106,-0.1137,-0.1182,-0.1192,-0.1224,-0.1231,-0.1306,-0.1289,-0.1257,-0.1366,-0.1309,-0.1315,-0.1386,-0.1402,-0.1414,-0.1395,-0.1235,0,0,0,0,0,-0.0932,-0.0967,-0.0995,-0.1029,-0.1042,-0.1082,-0.1105,-0.1116,-0.1154,-0.1178,-0.1237,-0.1279,-0.132,-0.1342,-0.1367,-0.1408,-0.1372,-0.1456,-0.1468,-0.1479,-0.1466,-0.1508,-0.1524,-0.136,-0.136,-0.136,0,0,-0.0942,-0.097,-0.0994,-0.1029,-0.1057,-0.1074,-0.11,-0.112,-0.1147,-0.1172,-0.127,-0.1326,-0.1342,-0.141,-0.1441,-0.1409,-0.1498,-0.1486,-0.1496,-0.1475,-0.1516,-0.1531,-0.1545,-0.1364,-0.1363,-0.1363,0,0,-0.0945,-0.0997,-0.1011,-0.1032,-0.1059,-0.108,-0.1096,-0.1147,-0.1185,-0.1254,-0.1304,-0.1405,-0.1461,-0.1511,-0.153,-0.1622,-0.157,-0.1637,-0.1683,-0.1726,-0.174,-0.1751,-0.1682,-0.1687,-0.1639,-0.1639,-0.164,0,-0.0951,-0.0979,-0.1016,-0.1027,-0.1044,-0.1093,-0.109,-0.1135,-0.1209,-0.1244,-0.1294,-0.1456,-0.1511,-0.1582,-0.1649,-0.1654,-0.1623,-0.1626,-0.1743,-0.1753,-0.1763,-0.169,-0.1694,-0.1645,-0.1645,-0.1644,-0.1644,0,-0.0939,-0.0983,-0.0997,-0.1036,-0.1048,-0.1061,-0.11,-0.1169,-0.1249,-0.1294,-0.1413,-0.1513,-0.1609,-0.1669,-0.1699,-0.1805,-0.1738,-0.1759,-0.1701,-0.1786,-0.1703,-0.1705,-0.1654,-0.1652,-0.165,-0.1649,0,0,-0.0883,-0.0973,-0.0967,-0.1011,-0.1046,-0.1058,-0.1113,-0.1164,-0.1219,-0.1343,-0.1434,-0.1589,-0.1668,-0.1698,-0.1771,-0.1841,-0.1922,-0.1846,-0.1845,-0.1769,-0.1932,-0.1759,-0.1743,-0.1971,-0.1973,-0.1975,-0.1829,0,-0.0862,-0.0881,-0.0915,-0.0967,-0.1,-0.1061,-0.1117,-0.1166,-0.1239,-0.1358,-0.1472,-0.1601,-0.166,-0.1762,-0.1834,-0.1925,-0.1938,-0.1953,-0.1865,-0.186,-0.1694,-0.1745,-0.1981,-0.183,-0.183,-0.183,-0.183,0,-0.0822,-0.0848,-0.0865,-0.0975,-0.0987,-0.1036,-0.1116,-0.1155,-0.1281,-0.1356,-0.1471,-0.1572,-0.1732,-0.1791,-0.1891,-0.1897,-0.1914,-0.1953,-0.1949,-0.1747,-0.1693,-0.1738,-0.1832,-0.1832,-0.1832,-0.1832,-0.1832,0,-0.0744,-0.0826,-0.0845,-0.0874,-0.0982,-0.1033,-0.1092,-0.1172,-0.1208,-0.1377,-0.1441,-0.1591,-0.1684,-0.1782,-0.1852,-0.1907,-0.1895,-0.1974,-0.1783,-0.1766,-0.1913,-0.1902,-0.1998,-0.1998,-0.1999,-0.1999,-0.2,0,-0.0714,-0.0749,-0.0851,-0.0861,-0.0913,-0.1006,-0.1066,-0.1137,-0.1258,-0.1277,-0.1448,-0.1475,-0.17,-0.1715,-0.1806,-0.1745,-0.1835,-0.1769,-0.1736,-0.1955,-0.1952,-0.1909,-0.1901,-0.1994,-0.1995,-0.1996,-0.1997,0,-0.0668,-0.0715,-0.0765,-0.0862,-0.0885,-0.0929,-0.1039,-0.1091,-0.1206,-0.124,-0.1316,-0.1408,-0.1447,-0.1542,-0.1647,-0.1624,-0.1651,-0.158,-0.1695,-0.1673,-0.1502,-0.1501,-0.1417,-0.141,-0.1404,-0.1399,-0.1395,0,-0.0647,-0.0664,-0.0715,-0.0725,-0.0789,-0.0875,-0.0912,-0.1046,-0.1074,-0.1145,-0.1138,-0.1203,-0.1257,-0.1189,-0.134,-0.1406,-0.1415,-0.1361,-0.1565,-0.1475,-0.1452,-0.146,-0.1468,-0.1386,-0.1385,-0.1383,-0.1382,0,-0.0596,-0.062,-0.0656,-0.066,-0.0702,-0.0736,-0.0808,-0.0813,-0.0926,-0.1029,-0.0969,-0.1016,-0.0977,-0.1073,-0.1067,-0.1141,-0.1411,-0.1302,-0.1319,-0.1511,-0.1436,-0.1421,-0.1435,-0.1361,-0.1364,-0.1366,-0.1367,0,-0.0567,-0.0559,-0.0581,-0.0618,-0.0626,-0.06,-0.065,-0.0689,-0.0724,-0.0816,-0.0753,-0.0827,-0.0894,-0.0918,-0.0934,-0.0981,-0.1061,-0.1082,-0.1112,-0.1136,-0.1133,-0.1002,-0.0747,0,0,0,0,0,-0.0535,-0.0517,-0.0524,-0.0518,-0.0541,-0.0536,-0.0573,-0.0639,-0.0703,-0.0626,-0.0713,-0.0699,-0.0741,-0.0764,-0.0784,-0.0879,-0.1083,-0.0896,-0.1126,-0.1249,-0.1273,-0.1307,0,0,0,0,0,0,-0.0492,-0.0499,-0.0503,-0.0461,-0.0438,-0.0425,-0.0434,-0.048,-0.0456,-0.0529,-0.0553,-0.0636,-0.0697,-0.0726,-0.0759,-0.0781,-0.0908,-0.0962,-0.0959,-0.1236,-0.1257,-0.1276,-0.1319,0,0,0,0,0]},{"header":{"parameterUnit":"m.s-1","parameterCategory":2,"la1":30.2991,"la2":30.254,"lo1":-89.0895,"lo2":-89.0444,"dy":0.0017,"dx":0.0017,"nx":28,"ny":28,"refTime":"2023-08-07T09:00:00:Z","depth":"4","parameterNumber":3,"parameterNumberName":"V-component_of_CURRENTS"},"data":[0,0,0,0,0,0,0,0,0,0,0,0,0,0,0,0,0,0,0,0,0,0,0,0,0,0,0,0,0,0,0,0,0,0,0,0,0,0,0,0,0,0,0,0,0,0,0,0,0,0,0,0,0,0,0,0,0,0,-0.0425,-0.0426,0,-0.0441,-0.0441,-0.0441,-0.0428,-0.0428,-0.0427,-0.0427,-0.0467,-0.0468,-0.047,0,0,0,0,0,0,0,0,0,0,0,0,0,-0.0377,-0.0378,-0.0425,-0.0426,-0.0426,-0.0441,-0.0441,-0.0441,-0.0428,-0.0428,-0.0427,-0.0427,-0.0466,-0.0468,-0.047,0,0,0,0,0,0,0,0,0,0,0,0,0,-0.0395,-0.0378,-0.0425,-0.0422,-0.0421,-0.0441,-0.0441,-0.0441,-0.0429,-0.0428,-0.0427,-0.0426,-0.0466,-0.0468,-0.047,-0.05,0,0,-0.0477,-0.0478,0,0,0,0,0,0,0,0,-0.0394,-0.0397,-0.0422,-0.0422,-0.0422,-0.0432,-0.0438,-0.0462,-0.0429,-0.0425,-0.0427,-0.0426,-0.0458,-0.0461,-0.0465,-0.0501,-0.0503,-0.0477,-0.0479,-0.048,-0.048,0,0,0,0,0,0,0,-0.0393,-0.0396,-0.0431,-0.0422,-0.0422,-0.0416,-0.0418,-0.0443,-0.0446,-0.0426,-0.0425,-0.0427,-0.0458,-0.0463,-0.0466,-0.0504,-0.0477,-0.0479,-0.0481,-0.0482,-0.0597,-0.0598,0,0,0,0,0,0,-0.0393,-0.0395,-0.0431,-0.0432,-0.0406,-0.0418,-0.042,-0.0429,-0.0445,-0.0447,-0.0428,-0.0427,-0.0459,-0.0463,-0.0467,-0.0553,-0.048,-0.0482,-0.0483,-0.0595,-0.0597,-0.0599,0,0,0,0,0,0,-0.0392,-0.0397,-0.043,-0.0413,-0.0417,-0.042,-0.043,-0.043,-0.044,-0.0447,-0.0449,-0.0439,-0.0459,-0.0464,-0.0511,-0.0552,-0.0483,-0.0485,-0.0593,-0.0596,-0.0598,-0.0692,0,0,0,0,0,0,-0.0391,-0.0396,-0.0407,-0.0414,-0.0418,-0.0468,-0.0431,-0.0431,-0.0443,-0.0441,-0.0457,-0.0459,-0.0458,-0.0508,-0.0514,-0.0554,-0.0487,-0.0591,-0.0594,-0.0597,-0.0687,-0.0698,-0.0707,0,0,0,0,0,-0.0389,-0.0416,-0.0408,-0.0412,-0.0432,-0.047,-0.0474,-0.0471,-0.0444,-0.0472,-0.0477,-0.0459,-0.0531,-0.0512,-0.0518,-0.056,-0.0589,-0.0593,-0.0597,-0.0683,-0.0696,-0.0707,0,0,0,0,0,0,-0.0404,-0.0418,-0.0408,-0.0438,-0.0461,-0.0469,-0.049,-0.0479,-0.0502,-0.0499,-0.0489,-0.0495,-0.0558,-0.0541,-0.052,-0.06,-0.0554,-0.056,-0.0617,-0.063,-0.0639,-0.0617,-0.0489,0,0,0,0,0,-0.0411,-0.0441,-0.0447,-0.048,-0.0486,-0.0486,-0.0498,-0.05,-0.0516,-0.0524,-0.0531,-0.0542,-0.0578,-0.0588,-0.062,-0.066,-0.0606,-0.0687,-0.0697,-0.0706,-0.0691,-0.065,-0.0654,-0.0611,-0.0611,-0.0611,0,0,-0.0432,-0.0441,-0.046,-0.0486,-0.0496,-0.053,-0.0492,-0.0527,-0.0561,-0.0527,-0.0578,-0.0591,-0.0601,-0.0659,-0.0682,-0.0648,-0.0692,-0.071,-0.0718,-0.0698,-0.0654,-0.0658,-0.0661,-0.0614,-0.0613,-0.0613,0,0,-0.0491,-0.0491,-0.053,-0.0547,-0.0569,-0.0577,-0.0588,-0.0603,-0.0614,-0.0666,-0.0654,-0.0681,-0.0728,-0.0738,-0.0749,-0.0826,-0.0759,-0.0839,-0.0858,-0.082,-0.0823,-0.0824,-0.0765,-0.076,-0.0827,-0.0827,-0.0827,0,-0.0512,-0.0553,-0.0552,-0.0586,-0.0603,-0.0599,-0.064,-0.0663,-0.0695,-0.0704,-0.0699,-0.075,-0.0765,-0.0811,-0.0839,-0.085,-0.08,-0.0816,-0.0831,-0.0831,-0.0831,-0.077,-0.0763,-0.0832,-0.0832,-0.0831,-0.0831,0,-0.059,-0.062,-0.0647,-0.0686,-0.0711,-0.0753,-0.0769,-0.0801,-0.0806,-0.0811,-0.0861,-0.0874,-0.089,-0.0909,-0.0901,-0.0916,-0.0873,-0.0862,-0.0797,-0.0841,-0.0774,-0.0765,-0.0839,-0.0838,-0.0836,-0.0835,0,0,-0.0636,-0.0691,-0.0698,-0.0716,-0.076,-0.0784,-0.0849,-0.0889,-0.0907,-0.0939,-0.096,-0.1015,-0.0987,-0.0995,-0.0986,-0.0945,-0.0915,-0.0898,-0.0893,-0.0831,-0.0804,-0.0726,-0.0708,-0.09,-0.0899,-0.0898,-0.0758,0,-0.0693,-0.0757,-0.0783,-0.0853,-0.0874,-0.0894,-0.0953,-0.0985,-0.0999,-0.1022,-0.1021,-0.1056,-0.1032,-0.1043,-0.1003,-0.0946,-0.0896,-0.0952,-0.0776,-0.077,-0.0689,-0.0697,-0.0895,-0.0752,-0.0749,-0.0748,-0.0747,0,-0.0745,-0.0774,-0.0847,-0.0899,-0.0914,-0.0976,-0.1023,-0.1071,-0.11,-0.1106,-0.1112,-0.1108,-0.1092,-0.1062,-0.0949,-0.0981,-0.0897,-0.0833,-0.0826,-0.0707,-0.0676,-0.0698,-0.073,-0.0732,-0.0733,-0.0734,-0.0735,0,-0.0731,-0.0813,-0.0868,-0.0887,-0.0959,-0.1011,-0.1059,-0.1098,-0.1122,-0.1154,-0.1157,-0.114,-0.1123,-0.1032,-0.0904,-0.0929,-0.0739,-0.0763,-0.0607,-0.06,-0.067,-0.0669,-0.0666,-0.0666,-0.0667,-0.0667,-0.0667,0,-0.0757,-0.0799,-0.0874,-0.0896,-0.0963,-0.1018,-0.1085,-0.1118,-0.1167,-0.1172,-0.1194,-0.1168,-0.1108,-0.1002,-0.0897,-0.07,-0.0729,-0.0594,-0.0556,-0.0715,-0.0721,-0.0663,-0.0664,-0.0662,-0.0663,-0.0664,-0.0665,0,-0.0746,-0.0792,-0.085,-0.0935,-0.0957,-0.101,-0.1098,-0.1133,-0.1181,-0.1186,-0.1204,-0.1177,-0.1031,-0.0925,-0.0753,-0.0673,-0.0515,-0.0435,-0.0579,-0.0555,-0.0409,-0.0418,-0.0277,-0.0273,-0.027,-0.0267,-0.0264,0,-0.075,-0.077,-0.0855,-0.0887,-0.0943,-0.1016,-0.1058,-0.1127,-0.1136,-0.1158,-0.1135,-0.1055,-0.1002,-0.0696,-0.0594,-0.0382,-0.0355,-0.0296,-0.039,-0.039,-0.0368,-0.0382,-0.0395,-0.0259,-0.0258,-0.0257,-0.0256,0,-0.0728,-0.077,-0.0816,-0.0874,-0.0931,-0.0987,-0.104,-0.1036,-0.1089,-0.1131,-0.1053,-0.097,-0.0788,-0.063,-0.0452,-0.0309,-0.0362,-0.0261,-0.0269,-0.0357,-0.0367,-0.0352,-0.0368,-0.0245,-0.0246,-0.0248,-0.0248,0,-0.0713,-0.0732,-0.0783,-0.0842,-0.0911,-0.0946,-0.098,-0.0979,-0.0992,-0.1007,-0.0956,-0.0849,-0.08,-0.0582,-0.0412,-0.027,-0.0265,-0.027,-0.0278,-0.029,-0.0346,-0.0365,-0.0192,0,0,0,0,0,-0.0688,-0.0683,-0.0732,-0.0791,-0.0882,-0.0916,-0.0955,-0.0982,-0.0993,-0.0925,-0.0951,-0.0787,-0.0593,-0.0513,-0.0348,-0.0348,-0.0234,-0.0155,-0.0242,-0.018,-0.0194,-0.0252,0,0,0,0,0,0,-0.0652,-0.0684,-0.07,-0.0752,-0.0794,-0.0865,-0.0893,-0.0912,-0.0856,-0.0869,-0.0742,-0.0755,-0.0532,-0.0669,-0.0345,-0.0308,-0.0346,-0.0076,-0.0074,-0.0172,-0.0185,-0.0195,-0.026,0,0,0,0,0]}]]